Weather Roundup
Issued by NWS Springfield, MO

Home | Current Version | Previous Version | Text Only | Print | Product List | Glossary On
Versions: 1 2 3 4 5 6 7 8 9 10 11 12 13 14 15 16 17 18 19 20 21 22 23 24 25 26 27 28 29 30 31 32 33 34 35 36 37 38 39 40 41 42 43 44 45 46 47 48 49 50
000
NZUS99 KSGF 190107
HRRSGF

HOURLY WEATHER
NATIONAL WEATHER SERVICE SPRINGFIELD MO
700 PM CST SAT NOV 18 2017

......SGF CWA......

CITY           SKY/WX    TMP DP  RH WIND       PRES   REMARKS
SPRINGFIELD    CLEAR     42  33  70 NW8       30.07R
JOPLIN         CLEAR     43  35  73 NW7       30.14R
WEST PLAINS    CLEAR     43  33  68 NW10G21   30.03R
ROLLA          CLEAR     40  34  79 W12       30.00R WCI  33
OSAGE BEACH    CLEAR     44  33  65 W7        30.05R
BRANSON        CLEAR     43  32  65 NW10G18   30.09R

......SURROUNDING SGF CWA......

CITY           SKY/WX    TMP DP  RH WIND       PRES   REMARKS
CHANUTE        CLEAR     44  31  60 NW8       30.16R
PARSONS        CLEAR     41  31  67 NW3       30.17R
COFFEYVILLE    CLEAR     45  33  63 NW5       30.16R
EMPORIA        CLEAR     44  26  49 NW10      30.17R
GROVE OK       CLEAR     46  37  71 CALM        N/A
ROGERS AR      CLEAR     43  32  65 W6        30.14R
SILOAM SPRINGS CLEAR     42  32  67 W3        30.16R
HARRISON AR    CLEAR     42  31  64 NW8       30.09R
NEAR YELLVILLE CLEAR     46  33  60 NW13G20   30.09R

......KANSAS AND MISSOURI......

CITY           SKY/WX    TMP DP  RH WIND       PRES   REMARKS
KANSAS CTY INT CLEAR     44  27  51 NW10      30.11R
DOWNTOWN KC    CLEAR     48  27  44 NW12G23   30.10R
COLUMBIA       CLEAR     41  32  70 W9        30.00R
SEDALIA        CLEAR     45  34  65 NW14      30.06R
ST JOSEPH      CLEAR     42  26  53 NW14      30.13R
ST LOUIS       MOCLDY    41  35  79 W12       29.91R
SPIRIT OF STL  MOCLDY    43  34  70 W16       29.93R
KIRKSVILLE     PTCLDY    41  31  67 NW16G31   30.00R
WICHITA        CLEAR     44  26  49 NW8       30.21R
TOPEKA         CLEAR     45  29  53 NW10      30.15R
OLATHE         CLEAR     45  29  53 NW15      30.10R

......TENNESSEE......

CITY           SKY/WX    TMP DP  RH WIND       PRES   REMARKS
MEMPHIS        PTCLDY    50  38  63 NW22G30   29.96R
NASHVILLE      CLOUDY    49  45  86 NW23G29   29.73R FOG

......ARKANSAS.......

CITY           SKY/WX    TMP DP  RH WIND       PRES   REMARKS
FAYETTEVILLE   CLEAR     42  31  64 NW3       30.14R
FT SMITH       CLEAR     47  32  56 W9        30.16R
LITTLE ROCK    PTCLDY    51  37  58 NW14      30.07R

......OKLAHOMA.......

CITY           SKY/WX    TMP DP  RH WIND       PRES   REMARKS
TULSA          CLEAR     48  34  58 NW8       30.18R
PONCA CITY     CLEAR     48  24  39 NW9       30.21R
MCALESTER      CLEAR     47  32  56 NW3       30.20R
OKLAHOMA CITY  CLEAR     44  31  60 NW7       30.22R

......IOWA............

CITY           SKY/WX    TMP DP  RH WIND       PRES   REMARKS
DES MOINES     PTCLDY    35  25  66 NW12      30.03R WCI  27
QUAD CITIES    CLEAR     39  30  70 NW23G37   29.84R WCI  28

......ILLINOIS........

CITY           SKY/WX    TMP DP  RH WIND       PRES   REMARKS
QUINCY         CLEAR     40  31  70 NW15      29.92R WCI  32
CHICAGO        CLOUDY    39  30  70 N20G28    29.70R WCI  29



USA.gov is the U.S. government's official web portal to all federal, state and local government web resources and services.